TimeCST,TemperatureF,Dew PointF,Humidity,Sea Level PressureIn,VisibilityMPH,Wind Direction,Wind SpeedMPH,Gust SpeedMPH,PrecipitationIn,Events,Conditions,WindDirDegrees,DateUTC
12:12 AM,-0.8,-6.3,77,30.00,10.0,Calm,Calm,-,N/A,,Clear,0,2014-02-15 06:12:00
12:33 AM,-0.8,-5.6,80,30.00,10.0,Calm,Calm,-,N/A,,Clear,0,2014-02-15 06:33:00
12:53 AM,-2.2,-7.6,78,29.99,10.0,Calm,Calm,-,N/A,,Clear,0,2014-02-15 06:53:00
1:13 AM,-2.7,-8.0,78,29.98,10.0,SSE,4.6,-,N/A,,Clear,150,2014-02-15 07:13:00
1:32 AM,-2.7,-8.3,77,29.96,10.0,SSE,4.6,-,N/A,,Clear,160,2014-02-15 07:32:00
1:53 AM,-2.2,-7.4,78,29.96,10.0,South,3.5,-,N/A,,Clear,190,2014-02-15 07:53:00
2:13 AM,-0.6,-5.8,79,29.94,10.0,South,3.5,-,N/A,,Clear,170,2014-02-15 08:13:00
2:33 AM,-0.6,-6.5,76,29.95,10.0,Calm,Calm,-,N/A,,Clear,0,2014-02-15 08:33:00
2:52 AM,0.3,-4.5,80,29.95,10.0,South,5.8,-,N/A,,Clear,190,2014-02-15 08:52:00
3:13 AM,0.5,-4.5,79,29.95,10.0,South,4.6,-,N/A,,Clear,190,2014-02-15 09:13:00
3:33 AM,1.8,-3.5,79,29.94,10.0,South,4.6,-,N/A,,Clear,180,2014-02-15 09:33:00
3:52 AM,2.1,-3.1,79,29.93,10.0,South,5.8,-,N/A,,Clear,190,2014-02-15 09:52:00
4:13 AM,2.5,-2.7,79,29.92,10.0,South,5.8,-,N/A,,Clear,180,2014-02-15 10:13:00
4:33 AM,3.6,-1.5,80,29.90,10.0,SSE,4.6,-,N/A,,Clear,160,2014-02-15 10:33:00
4:53 AM,4.6,-0.4,80,29.89,10.0,SSE,8.1,-,N/A,,Clear,160,2014-02-15 10:53:00
5:13 AM,5.0,-0.4,78,29.89,10.0,SSE,5.8,-,N/A,,Clear,160,2014-02-15 11:13:00
5:32 AM,5.0,-0.4,78,29.88,10.0,SSE,6.9,-,N/A,,Clear,160,2014-02-15 11:32:00
5:53 AM,5.9,0.5,78,29.87,10.0,SSE,5.8,-,N/A,,Scattered Clouds,160,2014-02-15 11:53:00
6:13 AM,5.9,0.5,78,29.86,10.0,SSE,5.8,-,N/A,,Mostly Cloudy,150,2014-02-15 12:13:00
6:33 AM,5.9,0.5,78,29.86,10.0,SSE,9.2,-,N/A,,Scattered Clouds,150,2014-02-15 12:33:00
6:53 AM,5.7,-0.0,77,29.85,10.0,SE,8.1,-,N/A,,Scattered Clouds,140,2014-02-15 12:53:00
7:13 AM,5.9,0.5,78,29.84,10.0,SSE,8.1,-,N/A,,Mostly Cloudy,150,2014-02-15 13:13:00
7:33 AM,6.8,1.0,77,29.83,10.0,SSE,9.2,-,N/A,,Overcast,150,2014-02-15 13:33:00
7:53 AM,8.4,1.9,75,29.83,10.0,SE,9.2,-,N/A,,Overcast,140,2014-02-15 13:53:00
8:13 AM,9.7,2.3,72,29.83,10.0,SSE,9.2,-,N/A,,Overcast,160,2014-02-15 14:13:00
8:33 AM,10.4,2.8,72,29.82,10.0,SSE,10.4,-,N/A,,Overcast,150,2014-02-15 14:33:00
8:52 AM,11.1,3.2,70,29.81,10.0,SE,9.2,-,N/A,,Overcast,140,2014-02-15 14:52:00
9:13 AM,12.4,3.9,69,29.81,10.0,SSE,8.1,-,N/A,,Overcast,150,2014-02-15 15:13:00
9:33 AM,13.1,4.1,67,29.81,10.0,SSE,9.2,-,N/A,,Overcast,160,2014-02-15 15:33:00
9:53 AM,14.0,5.4,69,29.80,4.0,SSE,9.2,-,N/A,Snow,Light Snow,150,2014-02-15 15:53:00
10:13 AM,14.2,6.6,72,29.79,1.2,SSE,9.2,17.3,N/A,Snow,Light Snow,150,2014-02-15 16:13:00
10:32 AM,14.5,9.0,79,29.79,0.2,SSE,9.2,-,N/A,Snow,Snow,150,2014-02-15 16:32:00
10:53 AM,14.7,9.5,80,29.79,0.2,SSE,9.2,-,0.01,Snow,Snow,150,2014-02-15 16:53:00
11:13 AM,14.9,10.2,82,29.78,0.5,SSE,12.7,-,0.01,Snow,Snow,150,2014-02-15 17:13:00
11:33 AM,15.8,11.1,82,29.77,0.5,SE,10.4,-,0.02,Snow,Snow,140,2014-02-15 17:33:00
11:53 AM,17.2,12.0,80,29.76,0.8,SSE,9.2,-,0.05,Snow,Light Snow,150,2014-02-15 17:53:00
12:12 PM,18.1,12.6,79,29.75,1.2,SE,11.5,-,0.02,Snow,Light Snow,140,2014-02-15 18:12:00
12:33 PM,19.0,13.1,78,29.74,1.5,SSE,9.2,-,0.02,Snow,Light Snow,150,2014-02-15 18:33:00
12:53 PM,19.8,13.1,75,29.73,2.5,SSE,11.5,17.3,0.02,,Haze,150,2014-02-15 18:53:00
1:13 PM,20.1,13.5,75,29.73,5.0,SSE,11.5,-,N/A,,Haze,150,2014-02-15 19:13:00
1:32 PM,20.5,13.5,74,29.72,5.0,SSE,11.5,17.3,N/A,,Haze,150,2014-02-15 19:32:00
1:53 PM,20.8,13.5,73,29.73,10.0,SE,10.4,-,N/A,,Overcast,140,2014-02-15 19:53:00
2:13 PM,21.2,13.8,73,29.74,10.0,SE,8.1,-,N/A,,Overcast,130,2014-02-15 20:13:00
2:33 PM,21.2,14.0,74,29.74,10.0,SE,6.9,-,N/A,,Overcast,140,2014-02-15 20:33:00
2:52 PM,21.0,14.0,74,29.75,10.0,ESE,5.8,-,N/A,,Overcast,110,2014-02-15 20:52:00
3:13 PM,21.0,14.4,75,29.77,10.0,East,4.6,-,N/A,,Overcast,100,2014-02-15 21:13:00
3:33 PM,21.0,14.5,76,29.78,10.0,East,4.6,-,N/A,,Overcast,100,2014-02-15 21:33:00
3:53 PM,21.2,14.7,76,29.80,10.0,Calm,Calm,-,N/A,,Overcast,0,2014-02-15 21:53:00
4:13 PM,21.2,14.5,75,29.80,10.0,NNE,4.6,-,N/A,,Overcast,20,2014-02-15 22:13:00
4:32 PM,20.3,14.0,77,29.81,10.0,NNE,3.5,-,N/A,,Overcast,30,2014-02-15 22:32:00
4:53 PM,20.7,14.0,75,29.83,10.0,North,4.6,-,N/A,,Overcast,360,2014-02-15 22:53:00
5:13 PM,20.3,14.0,77,29.85,10.0,North,3.5,-,N/A,,Overcast,360,2014-02-15 23:13:00
5:32 PM,20.3,14.2,77,29.87,10.0,NNW,4.6,-,N/A,,Overcast,330,2014-02-15 23:32:00
5:53 PM,20.3,14.4,78,29.89,10.0,NNW,4.6,-,N/A,,Overcast,330,2014-02-15 23:53:00
6:13 PM,20.3,14.2,77,29.90,10.0,NNW,5.8,-,N/A,,Overcast,330,2014-02-16 00:13:00
6:32 PM,20.3,14.0,77,29.91,10.0,NW,8.1,-,N/A,,Overcast,320,2014-02-16 00:32:00
6:52 PM,20.3,14.0,77,29.92,10.0,NW,8.1,-,N/A,,Overcast,320,2014-02-16 00:52:00
7:13 PM,20.3,13.8,76,29.94,10.0,NW,8.1,-,N/A,,Overcast,320,2014-02-16 01:13:00
7:30 PM,20.3,13.6,75,29.95,10.0,NW,9.2,-,N/A,,Overcast,320,2014-02-16 01:30:00
7:53 PM,20.5,13.5,74,29.96,10.0,WNW,6.9,-,N/A,,Overcast,300,2014-02-16 01:53:00
8:13 PM,20.7,13.8,75,29.97,10.0,WNW,8.1,-,N/A,,Overcast,300,2014-02-16 02:13:00
8:32 PM,20.7,13.6,74,29.97,10.0,WNW,10.4,-,N/A,,Overcast,300,2014-02-16 02:32:00
8:53 PM,21.0,13.5,73,29.98,10.0,WNW,10.4,-,N/A,,Overcast,300,2014-02-16 02:53:00
9:13 PM,21.0,13.5,73,29.99,10.0,WNW,13.8,-,N/A,,Overcast,300,2014-02-16 03:13:00
9:33 PM,21.0,13.6,73,30.00,10.0,WNW,10.4,-,N/A,,Overcast,300,2014-02-16 03:33:00
9:52 PM,21.0,13.6,73,30.00,10.0,WNW,9.2,-,N/A,,Overcast,300,2014-02-16 03:52:00
10:13 PM,20.8,14.0,75,30.02,10.0,WNW,8.1,-,N/A,,Overcast,290,2014-02-16 04:13:00
10:32 PM,21.0,14.2,75,30.04,10.0,West,8.1,-,N/A,,Overcast,280,2014-02-16 04:32:00
10:52 PM,19.8,13.8,78,30.04,7.0,West,13.8,-,N/A,,Overcast,280,2014-02-16 04:52:00
11:12 PM,18.9,13.1,78,30.04,7.0,WNW,12.7,-,N/A,Snow,Light Snow,290,2014-02-16 05:12:00
11:32 PM,19.0,13.1,78,30.04,10.0,WNW,11.5,-,N/A,Snow,Light Snow,300,2014-02-16 05:32:00
11:52 PM,19.4,13.1,76,30.02,10.0,NW,10.4,16.1,N/A,,Overcast,320,2014-02-16 05:52:00